Terminal Aerodrome Forecast
Issued by NWS

Home | Current Version | Previous Version | Text Only | Print | Product List | Glossary Off
Versions: 1 2 3 4 5 6 7 8 9 10 11 12 13 14 15 16 17

000
FTUS43 KGRB 231147 AAA
TAFMTW
TAF AMD
KMTW 231147Z 2312/2412 24006KT 2SM BR OVC003
      TEMPO 2312/2314 1/2SM FG SCT003
     FM231500 31007KT P6SM SCT040 BKN100
     FM232000 35009KT P6SM VCTS BKN040CB
     FM240000 04006KT P6SM VCSH BKN035
     FM240300 01006KT P6SM SCT035
     FM240600 35007KT 5SM BR SCT004 OVC015
      TEMPO 2408/2412 2SM BR BKN004=

USA.gov is the U.S. government's official web portal to all federal, state and local government web resources and services.